Stations météo

réclame
Mon MeteoGroup
Aeroport de Lannion, France (7118): Température de l'air & dewpoint: 02.07.2020 09:00:00 - 08.07.2020 09:00:00 (CEST)Aeroport de Lannion, France (7118): Vitesse du vent & gusts: 02.07.2020 09:00:00 - 08.07.2020 09:00:00 (CEST)Aeroport de Lannion, France (7118): Direction du vent: 02.07.2020 09:00:00 - 08.07.2020 09:00:00 (CEST)Aeroport de Lannion, France (7118): reduced air pressure: 02.07.2020 09:00:00 - 08.07.2020 09:00:00 (CEST)Aeroport de Lannion, France (7118): visibility: 02.07.2020 09:00:00 - 08.07.2020 09:00:00 (CEST)Aeroport de Lannion, France (7118): Quantités de précipitations: 02.07.2020 09:00:00 - 08.07.2020 09:00:00 (CEST)
Date & Time tt [°C] td [°C] ff [km/h] ff [knt] fx [km/h] fx [knt] dd ppp [hPa] vv [km] rr [mm]
08.07.2020 09:00:00 14,4 13,8 16 9 25 14 WSW 1021,0 3,2 0,0
08.07.2020 08:00:00 13,9 13,1 15 8 26 14 WSW 1020,9 6 0,0
08.07.2020 07:00:00 13,7 12,8 14 8 23 13 WSW 1020,8 14 0,0
08.07.2020 06:00:00 12,9 11,8 14 7 20 11 SW 1020,7 17 0,0
08.07.2020 05:00:00 12,2 11,3 10 6 18 10 SSW 1020,8 15 0,0
08.07.2020 04:00:00 12,5 11,1 9 5 19 10 SW 1021,6 19 0,0
08.07.2020 03:00:00 12,9 11,1 10 6 21 11 SW 1021,6 20 0,0
08.07.2020 02:00:00 13,7 11,2 12 7 24 13 WSW 1022,3 26 0,0
08.07.2020 01:00:00 14,0 11,9 14 7 21 11 WSW 1022,4 24 0,0
08.07.2020 00:00:00 13,9 11,9 13 7 21 12 WSW 1022,9 24 0,0
07.07.2020 23:00:00 12,3 10,5 9 5 18 10 W 1023,2 18 0,0
07.07.2020 22:00:00 13,4 10,9 15 8 27 14 W 1023,2 23 0,0
07.07.2020 21:00:00 15,0 11,2 17 9 28 15 W 1023,4 24 0,0
07.07.2020 20:00:00 15,9 11,3 19 10 30 16 W 1023,3 20 0,0
07.07.2020 19:00:00 16,4 10,7 21 12 31 17 WNW 1023,7 20 0,0
07.07.2020 18:00:00 17,0 10,1 20 11 30 16 WNW 1023,9 23 0,0
07.07.2020 17:00:00 17,3 11,6 18 10 35 19 W 1024,2 20 0,0
07.07.2020 16:00:00 17,6 12,1 16 9 27 15 W 1024,5 20 0,0
07.07.2020 15:00:00 17,8 11,6 15 8 28 15 W 1024,7 20 0,0
07.07.2020 14:00:00 17,6 11,6 12 7 23 13 W 1025,0 32 0,0
07.07.2020 13:00:00 16,9 9,1 9 5 24 13 W 1025,1 33 0,0
07.07.2020 12:00:00 16,4 11,5 11 6 29 16 W 1025,3 29 0,0
07.07.2020 11:00:00 14,7 10,5 10 6 21 12 W 1025,3 34 0,0
07.07.2020 10:00:00 14,3 11,8 6 3 16 9 W 1025,5 20 0,0
07.07.2020 09:00:00 13,7 11,4 4 2 11 6 WNW 1025,3 28 0,0
07.07.2020 08:00:00 11,5 10,9 3 1 4 2 SSE 1025,5 20 0,0
07.07.2020 07:00:00 8,0 7,4 2 1 4 2 SSE 1025,9 20 0,0
07.07.2020 06:00:00 9,2 8,6 0 0 5 3 N 1025,8 0,6 0,2
07.07.2020 05:00:00 8,9 8,3 0 0 8 4 N 1026,2 20 0,0
07.07.2020 04:00:00 9,2 8,4 4 2 5 3 W 1026,4 16 0,0
07.07.2020 03:00:00 9,4 8,3 4 2 6 3 WNW 1026,9 16 0,0
07.07.2020 02:00:00 9,8 8,7 5 3 6 3 W 1027,3 20 0,0
07.07.2020 01:00:00 10,9 9,5 0 0 9 5 N 1027,4 20 0,0
07.07.2020 00:00:00 11,0 8,9 5 3 12 6 WNW 1027,7 23 0,0
06.07.2020 23:00:00 12,3 9,7 8 5 18 10 WNW 1027,8 30 0,0
06.07.2020 22:00:00 13,7 10,1 13 7 26 14 WNW 1027,8 33 0,0
06.07.2020 21:00:00 14,3 10,3 19 10 29 15 WNW 1027,9 32 0,0
06.07.2020 20:00:00 15,2 10,6 15 8 28 15 WNW 1027,8 20 0,0
06.07.2020 19:00:00 15,4 10,2 17 9 30 16 NW 1027,7 36 0,0
06.07.2020 18:00:00 15,6 10,4 18 10 35 19 WNW 1027,8 20 0,0
06.07.2020 17:00:00 16,0 9,6 18 10 35 19 WNW 1027,6 24 0,0
06.07.2020 16:00:00 17,1 11,6 16 9 33 18 NW 1027,5 20 0,0
06.07.2020 15:00:00 16,4 10,0 21 11 34 18 WNW 1027,4 29 0,0
06.07.2020 14:00:00 15,7 9,1 18 10 35 19 NW 1027,5 19 0,0
06.07.2020 13:00:00 16,2 10,7 21 12 36 19 WNW 1027,0 19 0,0
06.07.2020 12:00:00 15,2 11,4 21 11 36 19 WNW 1026,8 17 0,0
06.07.2020 11:00:00 14,6 10,6 23 12 37 20 WNW 1026,5 16 0,0
06.07.2020 10:00:00 14,9 11,5 20 11 34 19 NW 1026,1 17 0,0
06.07.2020 09:00:00 14,0 10,4 16 9 32 17 WNW 1025,7 18 0,0
06.07.2020 08:00:00 13,4 10,4 18 10 34 18 WNW 1025,0 17 0,0
06.07.2020 07:00:00 13,3 10,3 19 10 34 18 WNW 1024,3 17 0,0
06.07.2020 06:00:00 12,9 9,5 17 9 40 22 WNW 1024,0 18 0,0
06.07.2020 05:00:00 13,2 9,6 24 13 42 23 WNW 1023,8 18 0,0
06.07.2020 04:00:00 13,2 9,8 22 12 39 21 W 1023,9 18 0,0
06.07.2020 03:00:00 13,3 9,9 23 13 41 22 W 1024,1 16 0,0
06.07.2020 02:00:00 13,7 10,3 19 11 34 18 W 1023,9 14 0,0
06.07.2020 01:00:00 13,5 10,7 21 11 34 18 W 1023,9 17 0,0
06.07.2020 00:00:00 13,4 10,6 22 12 37 20 W 1023,7 19 0,0
05.07.2020 23:00:00 13,1 10,3 21 11 34 18 W 1023,5 20 0,0
05.07.2020 22:00:00 13,7 10,1 23 12 39 21 W 1023,1 20 0,0
05.07.2020 21:00:00 15,0 11,0 26 14 45 24 W 1022,7 19 0,0
05.07.2020 20:00:00 15,4 10,6 30 16 44 24 W 1022,5 13 0,0
05.07.2020 19:00:00 16,3 11,7 34 19 50 27 W 1022,2 9 0,0
05.07.2020 18:00:00 17,3 10,9 28 15 48 26 W 1021,9 9 0,0
05.07.2020 17:00:00 17,2 11,2 35 19 48 26 W 1021,7 8 0,0
05.07.2020 16:00:00 16,6 12,5 30 16 44 24 W 1021,6 8 0,0
05.07.2020 15:00:00 16,2 14,2 24 13 42 23 W 1021,3 7 0,0
05.07.2020 14:00:00 16,6 14,8 27 15 43 23 WSW 1020,8 6 0,0
05.07.2020 13:00:00 15,6 15,0 26 14 44 24 W 1020,6 6 0,0
05.07.2020 12:00:00 16,1 15,5 28 15 44 24 W 1020,0 2,0 0,0
05.07.2020 11:00:00 16,6 16,0 29 15 49 26 WSW 1019,7 11 0,2
05.07.2020 10:00:00 16,4 15,9 24 13 41 22 SW 1019,3 3,0 0,2
05.07.2020 09:00:00 16,1 15,6 21 11 34 19 SW 1018,9 2,9 0,2
05.07.2020 08:00:00 15,9 15,4 20 11 38 20 SW 1018,5 7 0,0
05.07.2020 07:00:00 15,7 15,1 24 13 44 24 SW 1018,5 8 0,0
05.07.2020 06:00:00 15,6 15,0 26 14 42 23 WSW 1018,6 3,8 0,0
05.07.2020 05:00:00 15,7 15,1 25 14 47 26 SW 1018,5 3,9 0,0
05.07.2020 04:00:00 16,0 15,2 29 16 48 26 SW 1018,8 15 0,0
05.07.2020 03:00:00 16,1 15,3 29 16 48 26 SW 1018,8 14 0,0
05.07.2020 02:00:00 16,2 15,6 26 14 39 21 SW 1019,1 17 0,0
05.07.2020 01:00:00 16,2 15,6 24 13 41 22 SW 1019,5 16 0,0
05.07.2020 00:00:00 16,1 15,3 23 12 42 23 SW 1019,5 17 0,0
04.07.2020 23:00:00 16,4 15,8 22 12 37 20 SW 1019,3 9 0,0
04.07.2020 22:00:00 16,6 16,0 21 11 34 18 SW 1019,0 4,9 0,2
04.07.2020 21:00:00 16,8 16,2 20 11 32 17 SW 1018,8 3,9 0,0
04.07.2020 20:00:00 17,0 16,4 18 10 38 21 SW 1018,9 3,1 0,2
04.07.2020 19:00:00 17,2 16,4 21 11 37 20 WSW 1018,9 2,7 0,2
04.07.2020 18:00:00 17,6 16,5 24 13 42 23 WSW 1018,8 9 0,2
04.07.2020 17:00:00 18,5 16,7 24 13 44 24 SW 1018,5 20 0,0
04.07.2020 16:00:00 19,0 17,1 27 14 50 27 SW 1018,6 17 0,0
04.07.2020 15:00:00 19,6 17,2 31 17 52 28 SW 1018,5 20 0,0
04.07.2020 14:00:00 19,2 17,2 31 17 48 26 SW 1018,5 20 0,0
04.07.2020 13:00:00 19,0 16,8 29 16 49 26 SW 1018,5 48 0,0
04.07.2020 12:00:00 18,8 17,1 30 16 51 27 SW 1018,1 60 0,0
04.07.2020 11:00:00 17,5 16,5 25 14 39 21 SW 1018,0 10 0,0
04.07.2020 10:00:00 17,1 16,3 23 12 39 21 SW 1018,2 6 0,4
04.07.2020 09:00:00 16,9 16,1 23 12 40 22 SW 1018,1 6 0,0
04.07.2020 08:00:00 16,9 15,8 23 12 46 25 SSW 1017,8 50 0,0
04.07.2020 07:00:00 16,3 15,3 25 13 39 21 SSW 1017,8 9 0,0
04.07.2020 06:00:00 16,1 15,0 24 13 39 21 SSW 1017,8 13 0,0
04.07.2020 05:00:00 16,3 14,7 24 13 43 23 SW 1017,9 19 0,0
04.07.2020 04:00:00 16,3 14,0 27 14 45 25 SSW 1018,5 60 0,0
04.07.2020 03:00:00 16,1 13,6 27 15 46 25 SSW 1019,0 53 0,0
04.07.2020 02:00:00 16,0 13,3 22 12 41 22 SW 1019,8 36 0,0
04.07.2020 01:00:00 15,8 12,9 23 12 43 23 SSW 1019,9 35 0,0
04.07.2020 00:00:00 15,4 12,2 21 11 38 20 SSW 1020,5 38 0,0
03.07.2020 23:00:00 15,4 11,4 21 12 37 20 SSW 1020,9 44 0,0
03.07.2020 22:00:00 15,4 10,8 18 10 43 23 SSW 1021,0 48 0,0
03.07.2020 21:00:00 16,2 10,7 27 15 44 24 SSW 1021,3 47 0,0
03.07.2020 20:00:00 17,1 10,2 28 15 48 26 SSW 1021,2 21 0,0
03.07.2020 19:00:00 18,7 11,5 26 14 44 24 SW 1021,4 22 0,0
03.07.2020 18:00:00 18,8 11,1 27 14 46 25 SW 1021,7 22 0,0
03.07.2020 17:00:00 18,2 10,6 24 13 46 25 SSW 1022,0 27 0,0
03.07.2020 16:00:00 19,1 11,1 29 16 48 26 SSW 1022,2 20 0,0
03.07.2020 15:00:00 19,0 11,1 28 15 43 23 SW 1022,3 20 0,0
03.07.2020 14:00:00 17,2 13,3 15 8 29 16 WSW 1022,6 26 0,0
03.07.2020 13:00:00 17,0 13,1 20 11 34 19 W 1022,8 46 0,0
03.07.2020 12:00:00 16,8 12,7 18 10 34 18 SW 1022,8 34 0,0
03.07.2020 11:00:00 16,6 12,7 19 11 34 19 SW 1022,6 23 0,0
03.07.2020 10:00:00 16,4 12,9 15 8 27 14 SW 1022,5 20 0,0
03.07.2020 09:00:00 14,5 12,2 17 9 25 13 SW 1022,6 20 0,0
03.07.2020 08:00:00 13,0 12,1 9 5 16 9 SW 1022,6 18 0,0
03.07.2020 07:00:00 11,5 10,9 9 5 15 8 SSW 1022,9 17 0,2
03.07.2020 06:00:00 11,1 10,3 8 4 17 9 SSW 1022,5 17 0,0
03.07.2020 05:00:00 11,6 10,8 11 6 17 9 SW 1022,1 17 0,0
03.07.2020 04:00:00 11,6 10,8 10 6 18 10 SW 1022,0 16 0,0
03.07.2020 03:00:00 12,6 11,5 13 7 21 12 SW 1022,1 17 0,0
03.07.2020 02:00:00 13,3 11,9 13 7 22 12 SW 1022,2 20 0,0
03.07.2020 01:00:00 14,0 12,4 11 6 22 12 WSW 1022,1 28 0,0
03.07.2020 00:00:00 13,5 11,7 16 9 27 14 W 1022,1 29 0,0
02.07.2020 23:00:00 13,8 12,4 12 6 24 13 W 1021,8 22 0,0
02.07.2020 22:00:00 14,3 12,0 20 11 37 20 W 1021,2 20 0,0
02.07.2020 21:00:00 14,9 12,0 23 12 35 19 W 1020,9 26 0,0
02.07.2020 20:00:00 15,9 11,9 24 13 44 24 W 1020,4 33 0,0
02.07.2020 19:00:00 16,7 12,4 27 14 39 21 W 1019,8 22 0,0
02.07.2020 18:00:00 16,4 12,4 27 15 41 22 W 1019,5 10 0,0
02.07.2020 17:00:00 16,9 12,4 32 17 42 23 W 1019,4 10 0,0
02.07.2020 16:00:00 17,7 13,0 28 15 43 23 W 1019,0 10 0,0
02.07.2020 15:00:00 16,8 11,9 32 18 42 23 W 1018,8 11 0,0
02.07.2020 14:00:00 17,1 13,4 25 14 42 23 W 1018,4 12 0,0
02.07.2020 13:00:00 16,7 12,2 29 16 45 24 W 1017,8 12 0,0
02.07.2020 12:00:00 16,5 12,6 29 15 40 21 W 1017,2 13 0,0
02.07.2020 11:00:00 15,9 11,9 25 14 36 20 W 1016,7 14 0,0
02.07.2020 10:00:00 15,3 12,8 20 11 34 19 WSW 1016,2 20 0,0
02.07.2020 09:00:00 14,4 12,9 16 9 31 17 WSW 1015,9 18 0,0

tt = Température de l'air
td = dewpoint
ff = Vitesse du vent
fx = gusts
dd = Direction du vent
ppp = reduced air pressure
vv = visibility
rr = Quantités de précipitations

stations d'obs. à proximité